Location: Unspecified
(0.0000°N, 0.0000°E)
Time: 13:26:01
(UTC+00:00)

AO-7 - Pass Details

Date: 28 September 2021
Orbit: 1439 x 1459 km, 101.9° (Epoch: 26 October)

Event Time Altitude Azimuth Distance (km) Brightness Sun altitude
Rises 03:12:23 0° 27° (NNE) 4,520 ? -39.6°
Reaches altitude 10° 03:15:14 10° 31° (NNE) 3,543 ? -38.8°
Maximum altitude 03:23:12 53° 106° (ESE) 1,713 ? -36.8°
Drops below altitude 10° 03:31:11 10° 181° (S) 3,553 ? -34.9°
Sets 03:34:02 0° 185° (S) 4,534 ? -34.1°
